Regional Weather Roundup
Issued by NWS Northern Indiana

Home | Current Version | Previous Version | Text Only | Print | Product List | Glossary Off
Versions: 1 2 3 4 5 6 7 8 9 10 11 12 13 14 15 16 17 18 19 20 21 22 23 24 25 26 27 28 29 30 31 32 33 34 35 36 37 38 39 40 41 42 43 44 45 46 47 48 49 50

204
ASUS43 KIWX 252301
RWRIWX

KIWX WEATHER ROUNDUP
NATIONAL WEATHER SERVICE NORTHERN INDIANA
700 PM EDT TUE JUL 25 2017

NOTE: "FAIR" INDICATES FEW OR NO CLOUDS BELOW 12,000 FEET WITH NO
SIGNIFICANT WEATHER AND/OR OBSTRUCTIONS TO VISIBILITY.

* THESE STATIONS ARE NOT UNDER NWS QUALITY CONTROL. THEY ALSO MAY NOT
  REPORT WEATHER SUCH AS PRECIPITATION OR FOG.

INZ001>027-260000-
NORTHERN INDIANA

CITY           SKY/WX    TMP DP  RH WIND       PRES   REMARKS
GARY*          PTSUNNY   79  52  38 SE10      30.15F
MICHIGAN CITY* CLOUDY    77  54  44 SE5       30.17F
SOUTH BEND     SUNNY     78  55  44 E9        30.18F
ELKHART*       SUNNY     77  54  44 E6        30.18F
GOSHEN         SUNNY     78  52  40 E8        30.18F
MONTICELLO*    SUNNY     77  57  49 E6        30.17S
WARSAW*        CLOUDY    77  55  47 E7        30.19F
FORT WAYNE     MOSUNNY   77  58  51 E9        30.19F
PERU/GRISSOM   SUNNY     77  58  52 E9        30.17F

$$
INZ028>050-260000-
CENTRAL INDIANA

CITY           SKY/WX    TMP DP  RH WIND       PRES   REMARKS
LAFAYETTE      SUNNY     78  58  49 E8        30.16S
KOKOMO*        SUNNY     76  60  57 E7        30.19S
MUNCIE*        SUNNY     78  59  51 SE9       30.18S
INDIANAPOLIS   MOSUNNY   80  57  45 E7        30.16R

$$
MIZ043>046-050>051-056>058-064>065-071>073-077>080-260000-
SOUTHWEST LOWER MICHIGAN

CITY           SKY/WX    TMP DP  RH WIND       PRES   REMARKS
BATTLE CREEK   CLOUDY    79  53  40 S6        30.20F
BENTON HARBOR  MOSUNNY   74  59  59 CALM      30.16F
COLDWATER*     SUNNY     76  55  47 S5        30.20S
HILLSDALE*     CLOUDY    75  52  43 E6        30.21S
HOLLAND        MOSUNNY   76  59  55 SW3       30.17F
GRAND RAPIDS   PTSUNNY   79  53  40 S8        30.17F
KALAMAZOO      CLOUDY    80  51  36 S3        30.18F
STURGIS*       SUNNY     75  57  53 E8        30.19S
THREE RIVERS*  FAIR      77  52  42 SE6       30.19F

$$
OHZ001>008-015>018-024>025-260000-
NORTHWEST OHIO

CITY           SKY/WX    TMP DP  RH WIND       PRES   REMARKS
DEFIANCE       SUNNY    N/A N/A N/A E7        30.20S
FINDLAY        SUNNY     77  56  48 E7        30.19F
TOLEDO EXPRESS SUNNY     77  55  46 E9        30.20S
TOLEDO METCALF SUNNY     75  57  53 E9        30.21S
LIMA           SUNNY     75  61  61 NE7       30.20F

$$
AND FOR LAKE MICHIGAN COASTAL AND OPEN LAKE BUOY OBSERVATIONS

STATION/POSITION TEMP    WIND        PRES    VSBY  WAVE
                 AIR SEA DIR/SP/G                  HT/PER
                 (F)     (DEG/KT/KT) (MB)    (MI)  (FT/S)
CALUMET HARBOR    76      70/  9/ 11 1020.3F
MICHIGAN CITY     77     120/  9/ 11   N/A
BURNS HARBOR      78     140/  6/ 14 1021.3F
SAINT JOSEPH      73      10/  6/  8 1022.4
SOUTH LAKE BUOY   71 71  130/ 10/ 12 1021.4          1/ 4
4 MI NW BRIDGMAN  73 75   70/  6/  8 1021.2F         1
MICHIGAN CITY     76 75  150/  8/ 10   N/A           1

$$
&&




USA.gov is the U.S. government's official web portal to all federal, state and local government web resources and services.